Location: Cambridge (historical)
(38.6883°N, 119.0140°W)
Time: 12:44:46
(UTC+00:00)

Cosmos 2180 Rocket - Pass Details

Date: 29 October 2020
Orbit: 953 x 1006 km, 82.9° (Epoch: 01 December)

Event Time Altitude Azimuth Distance (km) Brightness Sun altitude
Rises 12:11:04 0° 347° (NNW) 3,686 7.4 -25.7°
Reaches altitude 10° 12:13:39 10° 343° (NNW) 2,727 6.7 -25.2°
Enters shadow 12:16:59 32° 328° (NNW) 1,617 5.4 -24.6°
Exits shadow 12:19:17 52° 283° (WNW) 1,186 4.5 -24.1°
Maximum altitude 12:19:40 53° 269° (W) 1,174 4.5 -24.1°
Drops below altitude 10° 12:25:36 10° 194° (SSW) 2,680 6.7 -22.9°
Sets 12:28:07 0° 189° (S) 3,618 7.4 -22.4°
